[[{"header":{"parameterUnit":"m.s-1","parameterCategory":1,"la1":30.2991,"la2":30.254,"lo1":-89.0895,"lo2":-89.0444,"dy":0.0017,"dx":0.0017,"nx":28,"ny":28,"refTime":"2024-03-03T09:00:00:Z","depth":0,"parameterNumber":2,"parameterNumberName":"U-component_of_WINDS"},"data":[0,0,0,0,0,0,0,0,0,0,0,0,0,0,0,0,0,0,0,0,0,0,0,0,0,0,0,0,0,0,0,0,0,0,0,0,0,0,0,0,0,0,0,0,0,0,0,0,0,0,0,0,0,0,0,0,0,0,-4.157,-4.1569,0,-4.15,-4.1499,-4.1498,-4.1361,-4.1358,-4.1355,-4.1353,-4.1283,-4.1284,-4.1285,0,0,0,0,0,0,0,0,0,0,0,0,0,-4.159,-4.1591,-4.157,-4.1569,-4.1568,-4.15,-4.1499,-4.1498,-4.1361,-4.1358,-4.1355,-4.1352,-4.1283,-4.1284,-4.1285,0,0,0,0,0,0,0,0,0,0,0,0,0,-4.1557,-4.1591,-4.157,-4.1492,-4.1484,-4.15,-4.1499,-4.1497,-4.1362,-4.1358,-4.1354,-4.135,-4.1283,-4.1284,-4.1285,-4.1372,0,0,-4.1288,-4.1288,0,0,0,0,0,0,0,0,-4.1559,-4.1557,-4.1504,-4.1497,-4.1489,-4.1435,-4.148,-4.1456,-4.1363,-4.1408,-4.1353,-4.1348,-4.1337,-4.1333,-4.1329,-4.1369,-4.1366,-4.1288,-4.1289,-4.1289,-4.1289,0,0,0,0,0,0,0,-4.1562,-4.1559,-4.1542,-4.1504,-4.1494,-4.1462,-4.1452,-4.1475,-4.1396,-4.1404,-4.1394,-4.1387,-4.1332,-4.1329,-4.1327,-4.1365,-4.1288,-4.1289,-4.1289,-4.129,-4.1475,-4.1479,0,0,0,0,0,0,-4.1575,-4.1562,-4.1544,-4.154,-4.1515,-4.1464,-4.1454,-4.1456,-4.1396,-4.1383,-4.1391,-4.1381,-4.1329,-4.1326,-4.1324,-4.1422,-4.1289,-4.129,-4.1291,-4.147,-4.1476,-4.148,0,0,0,0,0,0,-4.1576,-4.1575,-4.1547,-4.1548,-4.1542,-4.1468,-4.1472,-4.1457,-4.1453,-4.1386,-4.1371,-4.1401,-4.1326,-4.1322,-4.1361,-4.1418,-4.129,-4.1291,-4.1465,-4.1472,-4.1478,-4.1621,0,0,0,0,0,0,-4.1577,-4.1576,-4.1607,-4.155,-4.1543,-4.1585,-4.1475,-4.1458,-4.1455,-4.1442,-4.1392,-4.138,-4.1322,-4.1361,-4.1362,-4.1417,-4.1292,-4.146,-4.1468,-4.1476,-4.1611,-4.1631,-4.1649,0,0,0,0,0,-4.1578,-4.165,-4.1609,-4.1608,-4.158,-4.1589,-4.1585,-4.1516,-4.146,-4.1491,-4.1449,-4.1381,-4.1412,-4.1366,-4.1367,-4.1423,-4.1456,-4.1466,-4.1475,-4.1602,-4.1627,-4.1649,0,0,0,0,0,0,-4.1716,-4.1641,-4.1595,-4.165,-4.1627,-4.1565,-4.1603,-4.1545,-4.1537,-4.1525,-4.1442,-4.1432,-4.1482,-4.1456,-4.1406,-4.1505,-4.1424,-4.1434,-4.152,-4.1543,-4.1562,-4.1567,-4.1293,0,0,0,0,0,-4.1753,-4.1765,-4.17,-4.1755,-4.1746,-4.1677,-4.1678,-4.1628,-4.16,-4.159,-4.155,-4.1527,-4.1531,-4.1536,-4.1536,-4.1607,-4.1595,-4.1646,-4.1666,-4.1682,-4.1691,-4.1728,-4.1751,-4.1512,-4.1512,-4.1512,0,0,-4.1829,-4.179,-4.1803,-4.1782,-4.1757,-4.1774,-4.1669,-4.169,-4.1702,-4.1593,-4.1627,-4.1598,-4.1567,-4.1623,-4.1645,-4.1603,-4.1755,-4.1694,-4.1707,-4.1708,-4.1741,-4.1763,-4.1784,-4.1519,-4.1518,-4.1517,0,0,-4.1976,-4.1947,-4.199,-4.1969,-4.1934,-4.1888,-4.1899,-4.1847,-4.1823,-4.1856,-4.1776,-4.1789,-4.1798,-4.178,-4.1772,-4.1916,-4.1854,-4.1919,-4.2018,-4.2055,-4.2074,-4.209,-4.2142,-4.2162,-4.1929,-4.1929,-4.1929,0,-4.2075,-4.2094,-4.202,-4.2047,-4.2041,-4.1944,-4.1988,-4.1971,-4.1939,-4.1937,-4.189,-4.1901,-4.1873,-4.1924,-4.196,-4.1956,-4.1967,-4.1923,-4.2077,-4.2093,-4.2107,-4.2155,-4.2175,-4.1937,-4.1936,-4.1935,-4.1934,0,-4.2218,-4.2234,-4.2273,-4.2244,-4.2243,-4.2278,-4.2211,-4.2219,-4.217,-4.213,-4.2167,-4.213,-4.2122,-4.2131,-4.2083,-4.2176,-4.2151,-4.2092,-4.2008,-4.2139,-4.2183,-4.2201,-4.1949,-4.1946,-4.1943,-4.1941,0,0,-4.2447,-4.2378,-4.2394,-4.238,-4.2336,-4.2347,-4.238,-4.2372,-4.2381,-4.2363,-4.2388,-4.24,-4.2346,-4.2337,-4.2287,-4.232,-4.2437,-4.2257,-4.2255,-4.2292,-4.2539,-4.2583,-4.2605,-4.2397,-4.24,-4.2403,-4.2541,0,-4.2583,-4.2633,-4.2569,-4.2633,-4.2647,-4.2557,-4.2586,-4.2563,-4.2528,-4.2536,-4.2497,-4.2506,-4.2434,-4.2428,-4.2457,-4.2417,-4.2486,-4.2406,-4.2421,-4.2422,-4.243,-4.2628,-4.2674,-4.2806,-4.2558,-4.2561,-4.2563,0,-4.2748,-4.2738,-4.2804,-4.2757,-4.2761,-4.2787,-4.2776,-4.2785,-4.2758,-4.273,-4.2722,-4.2663,-4.2693,-4.2613,-4.2655,-4.2602,-4.2605,-4.2587,-4.259,-4.2588,-4.25,-4.2631,-4.2847,-4.2867,-4.2589,-4.2587,-4.2585,0,-4.2908,-4.2911,-4.2951,-4.2943,-4.289,-4.2911,-4.289,-4.2859,-4.2859,-4.285,-4.285,-4.2845,-4.2842,-4.2841,-4.2782,-4.273,-4.2832,-4.2747,-4.281,-4.2812,-4.2834,-4.2833,-4.3053,-4.2838,-4.2838,-4.2838,-4.2837,0,-4.3066,-4.311,-4.3023,-4.3047,-4.3095,-4.3022,-4.3072,-4.3042,-4.3016,-4.3034,-4.2957,-4.2977,-4.2899,-4.291,-4.2865,-4.2907,-4.2907,-4.2886,-4.2873,-4.2892,-4.2895,-4.2892,-4.2881,-4.2843,-4.2842,-4.2841,-4.284,0,-4.3252,-4.3195,-4.3233,-4.3181,-4.3169,-4.3206,-4.3162,-4.3183,-4.3144,-4.3169,-4.3171,-4.3109,-4.3119,-4.3061,-4.3061,-4.3031,-4.3095,-4.3067,-4.3104,-4.3095,-4.3162,-4.3156,-4.3386,-4.3413,-4.3182,-4.3184,-4.3186,0,-4.3355,-4.3387,-4.3339,-4.3346,-4.3329,-4.334,-4.334,-4.3272,-4.3275,-4.3249,-4.3274,-4.3278,-4.3277,-4.3298,-4.3254,-4.3254,-4.3225,-4.3306,-4.3225,-4.3244,-4.3226,-4.3225,-4.3228,-4.3323,-4.3326,-4.3328,-4.333,0,-4.3546,-4.3517,-4.3519,-4.3513,-4.3516,-4.3507,-4.3494,-4.3505,-4.343,-4.3439,-4.3448,-4.3447,-4.3448,-4.3453,-4.3445,-4.3425,-4.3366,-4.3357,-4.3371,-4.339,-4.341,-4.34,-4.3149,-4.3351,-4.3349,-4.3347,-4.3346,-4.3345,-4.3693,-4.3718,-4.3688,-4.3694,-4.3677,-4.3668,-4.3686,-4.365,-4.3656,-4.365,-4.361,-4.3627,-4.3603,-4.3586,-4.3572,-4.3585,-4.3547,-4.3568,-4.3573,-4.358,-4.3591,-4.3409,-4.3584,-4.3583,-4.3583,-4.3582,-4.3582,0,-4.3879,-4.3857,-4.3863,-4.3847,-4.3853,-4.3798,-4.3781,-4.379,-4.3805,-4.3787,-4.3789,-4.3801,-4.3806,-4.3764,-4.3765,-4.3784,-4.3757,-4.3786,-4.3784,-4.378,-4.3626,-4.3613,-4.3808,-4.3808,-4.3808,-4.3808,-4.3808,-4.3808,-4.3977,-4.4016,-4.3984,-4.4015,-4.3992,-4.4008,-4.4004,-4.3995,-4.398,-4.3997,-4.4001,-4.3974,-4.3947,-4.3945,-4.3949,-4.3936,-4.394,-4.3978,-4.3957,-4.3813,-4.3791,-4.377,-4.3757,-4.398,-4.398,-4.411,-4.4112,-4.4113]},{"header":{"parameterUnit":"m.s-1","parameterCategory":1,"la1":30.2991,"la2":30.254,"lo1":-89.0895,"lo2":-89.0444,"dy":0.0017,"dx":0.0017,"nx":28,"ny":28,"refTime":"2024-03-03T09:00:00:Z","depth":0,"parameterNumber":3,"parameterNumberName":"V-component_of_WINDS"},"data":[0,0,0,0,0,0,0,0,0,0,0,0,0,0,0,0,0,0,0,0,0,0,0,0,0,0,0,0,0,0,0,0,0,0,0,0,0,0,0,0,0,0,0,0,0,0,0,0,0,0,0,0,0,0,0,0,0,0,0.2582,0.2582,0,0.2612,0.2612,0.2612,0.2666,0.2667,0.2668,0.2669,0.2699,0.2699,0.2699,0,0,0,0,0,0,0,0,0,0,0,0,0,0.2572,0.2572,0.2582,0.2582,0.2582,0.2612,0.2612,0.2612,0.2666,0.2667,0.2668,0.267,0.2699,0.2699,0.2699,0,0,0,0,0,0,0,0,0,0,0,0,0,0.2586,0.2572,0.2582,0.2613,0.2616,0.2612,0.2612,0.2613,0.2666,0.2667,0.2669,0.267,0.2699,0.2699,0.2699,0.2667,0,0,0.2698,0.2698,0,0,0,0,0,0,0,0,0.2585,0.2587,0.2608,0.261,0.2614,0.2637,0.262,0.2631,0.2665,0.2647,0.2669,0.2671,0.2677,0.2679,0.2681,0.2668,0.2669,0.2698,0.2698,0.2698,0.2698,0,0,0,0,0,0,0,0.2584,0.2586,0.2594,0.2608,0.2612,0.2625,0.2629,0.2622,0.2653,0.2648,0.2652,0.2655,0.2679,0.2681,0.2682,0.267,0.2698,0.2698,0.2698,0.2698,0.2635,0.2633,0,0,0,0,0,0,0.2579,0.2584,0.2593,0.2594,0.2603,0.2624,0.2629,0.2628,0.2653,0.2658,0.2654,0.2658,0.2681,0.2682,0.2683,0.2649,0.2698,0.2698,0.2697,0.2636,0.2634,0.2633,0,0,0,0,0,0,0.2578,0.2579,0.2591,0.2591,0.2593,0.2623,0.2622,0.2628,0.263,0.2657,0.2663,0.265,0.2682,0.2684,0.2671,0.2651,0.2697,0.2697,0.2638,0.2636,0.2634,0.2579,0,0,0,0,0,0,0.2578,0.2578,0.2566,0.259,0.2593,0.2578,0.262,0.2627,0.2629,0.2634,0.2655,0.266,0.2683,0.2671,0.2671,0.2651,0.2697,0.264,0.2637,0.2634,0.2583,0.2575,0.2568,0,0,0,0,0,0.2577,0.2549,0.2565,0.2566,0.2578,0.2577,0.2578,0.2606,0.2627,0.2616,0.2634,0.266,0.2653,0.2669,0.2669,0.2649,0.2641,0.2638,0.2634,0.2586,0.2576,0.2569,0,0,0,0,0,0,0.2521,0.2552,0.2571,0.2549,0.256,0.2586,0.2571,0.2595,0.2599,0.2604,0.2638,0.2642,0.2625,0.2636,0.2654,0.2621,0.2651,0.2648,0.2614,0.2606,0.2599,0.2597,0.2697,0,0,0,0,0,0.2506,0.2502,0.253,0.2508,0.2513,0.2541,0.2541,0.2562,0.2574,0.2579,0.2596,0.2607,0.2608,0.2607,0.2609,0.2585,0.2591,0.2571,0.2564,0.2558,0.2555,0.2545,0.2537,0.2621,0.2621,0.2621,0,0,0.2475,0.2492,0.2487,0.2497,0.2508,0.2504,0.2544,0.2537,0.2535,0.2578,0.2567,0.258,0.2595,0.2577,0.257,0.2585,0.2533,0.2554,0.2549,0.2549,0.254,0.2532,0.2525,0.2619,0.2619,0.262,0,0,0.2417,0.2428,0.2412,0.2423,0.2439,0.2459,0.2455,0.2478,0.2488,0.2479,0.2511,0.2509,0.2509,0.2519,0.2524,0.2472,0.2496,0.2472,0.2435,0.2424,0.2418,0.2412,0.2395,0.2388,0.2468,0.2468,0.2468,0,0.2376,0.2371,0.2401,0.2393,0.2397,0.2437,0.2422,0.2431,0.2446,0.2449,0.2466,0.2469,0.2481,0.2467,0.2455,0.2457,0.2455,0.2469,0.2416,0.2411,0.2406,0.239,0.2383,0.2465,0.2465,0.2466,0.2466,0,0.2321,0.2317,0.2302,0.2318,0.232,0.2308,0.2338,0.2337,0.2358,0.2376,0.2367,0.2383,0.2391,0.2389,0.2408,0.2378,0.2387,0.241,0.2441,0.2394,0.238,0.2374,0.2461,0.2462,0.2463,0.2463,0,0,0.2226,0.226,0.2255,0.2263,0.2285,0.2283,0.2274,0.2282,0.2281,0.2291,0.2285,0.2285,0.2307,0.2313,0.2334,0.2325,0.2285,0.235,0.2351,0.2338,0.2254,0.2238,0.223,0.2302,0.2301,0.23,0.2254,0,0.2173,0.2159,0.2188,0.2168,0.2165,0.2204,0.2197,0.221,0.2227,0.2228,0.2247,0.2247,0.2275,0.2279,0.2272,0.2291,0.2269,0.2295,0.2297,0.2297,0.2293,0.2222,0.2204,0.2159,0.2248,0.2247,0.2246,0,0.2109,0.2117,0.2097,0.2122,0.2122,0.2115,0.2126,0.2126,0.2142,0.2155,0.2163,0.2188,0.2183,0.2213,0.2206,0.2223,0.2226,0.2236,0.2235,0.2236,0.2269,0.2222,0.2145,0.2139,0.2238,0.2238,0.2239,0,0.2043,0.2049,0.2039,0.2045,0.2073,0.2068,0.2079,0.2097,0.2101,0.211,0.2113,0.2122,0.2126,0.2132,0.216,0.2179,0.215,0.2182,0.2162,0.2161,0.2154,0.2154,0.2077,0.2155,0.2155,0.2155,0.2155,0,0.1981,0.1968,0.201,0.2003,0.199,0.2023,0.2009,0.2025,0.2041,0.2039,0.2073,0.207,0.2107,0.2108,0.213,0.2122,0.2123,0.2135,0.2141,0.2132,0.213,0.2134,0.2138,0.2153,0.2153,0.2154,0.2154,0,0.1906,0.1933,0.1925,0.1953,0.196,0.1949,0.1974,0.197,0.199,0.1987,0.1988,0.202,0.2024,0.2052,0.2062,0.2077,0.2061,0.2073,0.2055,0.2059,0.2038,0.204,0.1961,0.1953,0.2035,0.2034,0.2033,0,0.1864,0.1855,0.1884,0.1885,0.1895,0.1897,0.1901,0.1934,0.1938,0.1957,0.195,0.1957,0.1965,0.1969,0.1993,0.2002,0.2014,0.1986,0.2016,0.2008,0.2015,0.2016,0.2016,0.198,0.1979,0.1978,0.1977,0,0.1789,0.1804,0.1809,0.1819,0.1824,0.1833,0.1845,0.1844,0.1881,0.1883,0.1888,0.1894,0.1905,0.1912,0.1925,0.1938,0.1964,0.1968,0.1964,0.1955,0.1946,0.1952,0.2039,0.1969,0.197,0.1971,0.1971,0.1972,0.173,0.1724,0.1744,0.1749,0.1762,0.1773,0.1771,0.1791,0.1796,0.1808,0.1827,0.183,0.1849,0.1869,0.188,0.1883,0.1898,0.1892,0.189,0.1888,0.1884,0.1945,0.1886,0.1886,0.1886,0.1886,0.1886,0,0.1657,0.1672,0.1677,0.1693,0.1697,0.1722,0.1737,0.1739,0.1741,0.1757,0.1764,0.177,0.1778,0.1803,0.1813,0.1811,0.1823,0.1813,0.1813,0.1816,0.187,0.1873,0.1803,0.1803,0.1803,0.1803,0.1803,0.1803,0.162,0.1612,0.163,0.1629,0.1645,0.1648,0.1655,0.1665,0.1678,0.1684,0.1691,0.1707,0.1727,0.174,0.1748,0.1756,0.1758,0.1743,0.1755,0.1804,0.1812,0.182,0.1823,0.1744,0.1743,0.1701,0.1701,0.1701]}]]